Regional Weather Roundup
Issued by NWS Newport/Morehead, NC

Current Version | Previous Version | Graphics & Text | Print | Product List | Glossary Off
Versions: 1 2 3 4 5 6 7 8 9 10 11 12 13 14 15 16 17 18 19 20 21 22 23 24 25 26 27 28 29 30 31 32 33 34 35 36 37 38 39 40 41 42 43 44 45 46 47 48 49 50

520
ASUS42 KMHX 220925
RWRMHX
WEATHER ROUNDUP FOR EASTERN NORTH CAROLINA
NATIONAL WEATHER SERVICE NEWPORT/MOREHEAD CITY NC
400 AM EST SUN JAN 22 2017

NOTE: "FAIR" INDICATES FEW OR NO CLOUDS BELOW 12,000 FEET
WITH NO SIGNIFICANT WEATHER AND/OR OBSTRUCTIONS TO VISIBILITY

NCZ015>017-031-032-045>047-102-103-221000-
NORTH COAST

CITY           SKY/WX    TMP DP  RH WIND       PRES   REMARKS
EDENTON        FOG       53  53 100 CALM      29.62F VSB 1/4
ELIZABETH CITY FOG       55  54  96 SW8       29.61F VSB 1/2
KITTY HAWK     NOT AVBL
MANTEO         FOG       55  55 100 SW3       29.62S VSB 1/4

$$

NCZ045>047-081-094-103-104-221000-
CENTRAL COAST

CITY           SKY/WX    TMP DP  RH WIND       PRES   REMARKS
FRISCO         CLEAR     60  57  89 W12       29.65S FOG

$$

NCZ095-097-098-100-101-221000-
SOUTHERN COAST

CITY           SKY/WX    TMP DP  RH WIND       PRES   REMARKS
BEAUFORT       PTCLDY    59  56  89 W7        29.66F
CEDAR ISLAND   NOT AVBL
JACKSONVILLE   CLOUDY    61  59  93 SW7       29.66F
PINEY ISLAND   PTSUNNY  N/A N/A N/A SW12      29.66S
WILMINGTON     PTCLDY    59  58  96 SW9       29.67F


$$

NCZ011>013-027>030-043-044-078>080-089-090>093-098-221000-
COASTAL PLAIN

CITY           SKY/WX    TMP DP  RH WIND       PRES   REMARKS
AHOSKIE        DRZL/FOG  51  51  99 CALM      29.63F VSB 1/4
CLINTON        CLOUDY    61  60  97 SW7       29.67R
ELIZABETHTOWN  CLOUDY    61  59  94 SW5       29.66F
GOLDSBORO      CLOUDY    60  60 100 SW13      29.62S
GREENVILLE     CLOUDY    59  59 100 SW7       29.66F
HAVELOCK       CLOUDY    61  57  87 SW10      29.66F
KENANSVILLE    CLOUDY    61  59  94 SW10      29.66S
KINSTON        CLOUDY    61  60  94 SW8       29.65R
NEW BERN       MOCLDY    60  58  92 SW7       29.66S
RICHLANDS      MOCLDY    59  57  93 SW7       29.66F
ROCKY MOUNT    CLOUDY    55  55 100 CALM      29.64R FOG
WASHINGTON     FOG       55  55 100 CALM        N/A  VSB 1/4
WHITEVILLE     MOCLDY    61  57  85 W7        29.64F

$$

AMZ130-135-150-152-154-156-158-170-250-252-270-ANZ085-086-088-633-658-670-221000-
MARINE OBSERVATIONS

STATION/POSITION TIME  TEMP    WIND        PRES    WAVE   SWELL
                       AIR SEA DIR/SP/G            HT/PER HT/PER
                 (UTC) (F)     (DEG/KT/KT) (MB)    (FT/S) (FT/S)
CHESAPEAKE LIGHT NOT AVBL
64 E VA BEACH    0850   63 58  200/ 17/ 27 1002.1    5/12   3/12
DUCK             0900   61 45  220/  8/ 11 1002.0
2 E DUCK         0900      46                N/A     3/11   2/11
OREGON INLET     0900   53 50  200/  8/  9 1002.7
13E OREGON INLT  NOT AVBL
HATTERAS CG      0900   59 55  230/  9/ 14 1003.6
DIAMOND BUOY     0850   69 73  250/ 25/ 29 1003.4    6/ 6   3/11
CAPE LOOKOUT     0900   60     250/ 12/ 16 1004.2
BEAUFORT LAB     0900   58 52  230/  3/  6 1003.4
30 SE NEW RVR IN 0908   63 65  260/ 19/ 25 1004.7
30 SE NEW RVR IN 0843      66                N/A     5/ 6   2/12
27 SE WRIGHTSVLE 0908   63 68  240/ 16/ 23 1004.5
5 SE WRIGHTSVLE  0908   57     240/ 10/ 14 1004.7
225 S CAPE HAT   0850   72 71  200/ 17/ 21 1006.9    7/ 6   3/11
41 SE CHARLESTON 0850   69 68  240/ 16/ 19 1005.2    4/ 6   2/11

$$




USA.gov is the U.S. government's official web portal to all federal, state and local government web resources and services.